This demonstration page uses our WeatherBlox Daily Observations layout. Learn more.

40.92945, -100.16068

Hourly Observations for January 21, 2015

Temp ( °F °C ) Dew Point ( °F °C ) Humidity (%) Winds ( mph kmh ) Pressure ( in mb ) Visibility ( mi km ) Precip ( " mm )
12:15 am 00:15 Clear 29 -1.5 26 -3.6 86 86 WNW 9 15 30.3 1026 10 16.0934 N/A
12:35 am 00:35 Clear 28 -2.2 24 -4.2 86 86 W 9 15 30.3 1026 10 16.0934 N/A
12:55 am 00:55 Clear 29 -1.9 25 -4 86 86 WNW 10 17 30.3 1026 10 16.0934 N/A
1:15 am 01:15 Clear 28 -2.2 25 -4.1 87 87 NW 10 17 30.3 1026 10 16.0934 N/A
1:35 am 01:35 Clear 28 -2.2 25 -4.1 87 87 WNW 9 15 30.3 1026 10 16.0934 N/A
1:55 am 01:55 Clear 28 -2.5 24 -4.2 88 88 WNW 9 15 30.3 1026 10 16.0934 N/A
3:15 am 03:15 Clear 26 -3.5 23 -5 89 89 WNW 8 13 30.3 1026 10 16.0934 N/A
3:35 am 03:35 Clear 26 -3.1 24 -4.6 90 90 WNW 10 17 30.3 1026 10 16.0934 N/A
3:55 am 03:55 Clear 27 -3 24 -4.5 90 90 WNW 12 19 30.3 1026 10 16.0934 N/A
4:15 am 04:15 Clear 26 -3.5 23 -5 89 89 WNW 9 15 30.3 1026 10 16.0934 N/A
4:35 am 04:35 Clear 25 -4 22 -5.5 89 89 WNW 10 17 30.33 1027 10 16.0934 N/A
4:55 am 04:55 Clear 24 -4.2 22 -5.5 91 91 WNW 8 13 30.33 1027 10 16.0934 N/A
5:15 am 05:15 Clear 24 -4.7 21 -6 91 91 W 7 11 30.33 1027 10 16.0934 N/A
5:35 am 05:35 Clear 25 -4.1 22 -5.5 90 90 WNW 7 11 30.33 1027 10 16.0934 N/A
5:55 am 05:55 Clear 24 -4.3 22 -5.6 91 91 WNW 9 15 30.36 1028 10 16.0934 N/A
6:15 am 06:15 Clear 22 -5.3 20 -6.6 91 91 NW 9 15 30.36 1028 10 16.0934 N/A
6:35 am 06:35 Clear 24 -4.7 22 -5.8 92 92 WNW 9 15 30.36 1028 10 16.0934 N/A
6:55 am 06:55 Clear 24 -4.5 21 -5.9 90 90 WNW 9 15 30.36 1028 10 16.0934 N/A
7:15 am 07:15 Clear 24 -4.5 21 -6 89 89 NW 9 15 30.36 1028 10 16.0934 N/A
7:35 am 07:35 Clear 22 -5.3 20 -6.7 90 90 NW 8 13 30.36 1028 10 16.0934 N/A
7:55 am 07:55 Clear 24 -4.3 22 -5.8 89 89 WNW 12 19 30.36 1028 10 16.0934 N/A
8:15 am 08:15 Sunny 23 -4.8 21 -6.3 89 89 WNW 10 17 30.36 1028 10 16.0934 N/A
8:35 am 08:35 Sunny 24 -4.6 21 -6.1 89 89 WNW 7 11 30.39 1029 10 16.0934 N/A
8:55 am 08:55 Sunny 26 -3.5 23 -5.1 89 89 W 7 11 30.36 1028 10 16.0934 N/A
9:15 am 09:15 Sunny 28 -2.4 24 -4.3 87 87 W 7 11 30.36 1028 10 16.0934 N/A
9:35 am 09:35 Sunny 30 -0.9 26 -3.4 83 83 W 9 15 30.36 1028 10 16.0934 N/A
9:55 am 09:55 Sunny 32 0 26 -3.5 78 78 WNW 14 22 30.33 1027 10 16.0934 N/A
10:15 am 10:15 Sunny 32 0.2 26 -3.3 78 78 WNW 14 22 30.36 1028 10 16.0934 N/A
10:35 am 10:35 Sunny 33 0.7 26 -3.1 76 76 WNW 15 24 30.36 1028 10 16.0934 N/A
10:55 am 10:55 Sunny 35 1.4 26 -3.2 72 72 WNW 14 22 30.36 1028 10 16.0934 N/A
11:15 am 11:15 Sunny 35 1.9 26 -3.2 69 69 NW 14 22 30.36 1028 10 16.0934 N/A
11:35 am 11:35 Sunny 37 2.6 27 -3 67 67 NW 14 22 30.33 1027 10 16.0934 N/A
11:55 am 11:55 Sunny 38 3.2 26 -3.1 64 64 NW 13 20 30.33 1027 10 16.0934 N/A
12:15 pm 12:15 Sunny 39 3.8 27 -3 62 62 NW 10 17 30.33 1027 10 16.0934 N/A
12:35 pm 12:35 Sunny 40 4.5 26 -3.6 56 56 NW 13 20 30.3 1026 10 16.0934 N/A
12:55 pm 12:55 Partly Cloudy 41 4.8 25 -4 53 53 NNW 15 24 30.3 1026 10 16.0934 N/A
1:15 pm 13:15 Partly Cloudy 41 5.1 24 -4.6 50 50 NW 13 20 30.3 1026 10 16.0934 N/A
1:35 pm 13:35 Partly Cloudy 41 4.9 24 -4.6 51 51 WNW 10 17 30.3 1026 10 16.0934 N/A
1:55 pm 13:55 Mostly Cloudy 40 4.7 24 -4.7 51 51 NW 13 20 30.27 1025 10 16.0934 N/A
2:15 pm 14:15 Cloudy 41 5.2 23 -5 48 48 NNW 14 22 30.27 1025 10 16.0934 N/A
2:35 pm 14:35 Cloudy 41 5.2 23 -5 48 48 NNW 14 22 30.27 1025 10 16.0934 N/A
2:55 pm 14:55 Mostly Cloudy 41 4.9 23 -5 49 49 NW 13 20 30.27 1025 10 16.0934 N/A
3:15 pm 15:15 Cloudy 42 5.3 23 -5.2 47 47 NNW 12 19 30.27 1025 10 16.0934 N/A
3:35 pm 15:35 Cloudy 40 4.6 22 -5.3 49 49 N 16 26 30.3 1026 10 16.0934 N/A
3:55 pm 15:55 Cloudy 40 4.5 22 -5.4 49 49 N 13 20 30.3 1026 10 16.0934 N/A
4:15 pm 16:15 Cloudy 39 4 22 -5.8 49 49 NNW 15 24 30.3 1026 10 16.0934 N/A
4:35 pm 16:35 Cloudy 39 3.7 22 -5.5 51 51 N 13 20 30.3 1026 10 16.0934 N/A
4:55 pm 16:55 Cloudy 38 3.2 23 -5.1 55 55 N 13 20 30.33 1027 10 16.0934 N/A
5:15 pm 17:15 Mostly Cloudy 37 2.5 23 -5 58 58 N 14 22 30.33 1027 10 16.0934 N/A
5:35 pm 17:35 Cloudy 37 2.5 23 -5 58 58 N 12 19 30.33 1027 10 16.0934 N/A
5:55 pm 17:55 Cloudy 36 2.2 23 -4.9 60 60 N 10 17 30.36 1028 10 16.0934 N/A
6:15 pm 18:15 Cloudy 36 2.2 23 -5 59 59 NNW 10 17 30.39 1029 10 16.0934 N/A
6:35 pm 18:35 Cloudy 35 1.9 24 -4.7 62 62 NNW 14 22 30.39 1029 10 16.0934 N/A
6:55 pm 18:55 Cloudy 35 1.5 26 -3.3 71 71 N 14 22 30.42 1030 10 16.0934 N/A
7:15 pm 19:15 Cloudy 34 1 26 -3.5 72 72 N 13 20 30.42 1030 10 16.0934 N/A
7:35 pm 19:35 Cloudy 33 0.8 24 -4.2 70 70 N 10 17 30.42 1030 10 16.0934 N/A
7:55 pm 19:55 Cloudy 33 0.5 24 -4.3 71 71 N 10 17 30.45 1031 10 16.0934 N/A
8:15 pm 20:15 Cloudy 33 0.3 24 -4.6 70 70 N 7 11 30.48 1032 10 16.0934 N/A
8:35 pm 20:35 Cloudy 32 0.2 24 -4.5 71 71 NNW 6 9 30.48 1032 10 16.0934 N/A
8:55 pm 20:55 Cloudy 32 0.1 24 -4.5 72 72 N 5 7 30.48 1032 10 16.0934 N/A
9:15 pm 21:15 Cloudy 32 0 24 -4.5 72 72 NNW 7 11 30.48 1032 10 16.0934 N/A
9:35 pm 21:35 Cloudy 32 0.1 23 -5 69 69 NNW 9 15 30.48 1032 10 16.0934 N/A
9:55 pm 21:55 Cloudy 32 0 22 -5.3 68 68 N 9 15 30.48 1032 10 16.0934 N/A
10:15 pm 22:15 Cloudy 32 0 21 -5.9 65 65 N 13 20 30.48 1032 10 16.0934 N/A
10:35 pm 22:35 Cloudy 32 0 21 -6 64 64 N 14 22 30.48 1032 10 16.0934 N/A
10:55 pm 22:55 Cloudy 31 -0.3 22 -5.7 67 67 N 8 13 30.48 1032 10 16.0934 N/A
11:15 pm 23:15 Cloudy 31 -0.8 21 -6 68 68 NNW 8 13 30.48 1032 10 16.0934 N/A
11:35 pm 23:35 Cloudy 29 -1.9 21 -6 74 74 NNW 6 9 30.48 1032 10 16.0934 N/A
11:55 pm 23:55 Mostly Cloudy 27 -2.7 21 -6.3 77 77 NNW 9 15 30.5 1033 10 16.0934 N/A

Powered by AerisWeather